Location: Bay Harbour
(38.2612°N, 75.2555°W)
Time: 02:03:09
(UTC+00:00)

USA 307 - Pass Details

Date: 29 October 2020
Orbit: 569 x 579 km, 54.0° (Epoch: 30 November)

Event Time Altitude Azimuth Distance (km) Brightness Sun altitude
Rises 23:27:26 0° 318° (NW) 2,786 7.0 -16.8°
Reaches altitude 10° 23:29:51 10° 327° (NNW) 1,883 5.9 -17.3°
Maximum altitude 23:33:49 35° 35° (NE) 926 3.6 -18.1°
Enters shadow 23:34:17 34° 50° (NE) 946 3.6 -18.2°
